www.pogodaiklimat.ru
ПОГОДА в Гран-Канарии
Время
(UTC), дата
11 20.05
10 20.05
12 20.05
13 20.05
14 20.05
15 20.05
17 20.05
16 20.05
18 20.05
19 20.05
20 20.05
21 20.05
23 20.05
22 20.05
00 21.05
01 21.05
02 21.05
03 21.05
05 21.05
04 21.05
06 21.05
07 21.05
08 21.05
09 21.05
11 21.05
10 21.05
12 21.05
13 21.05
14 21.05
15 21.05
17 21.05
16 21.05
18 21.05
19 21.05
20 21.05
21 21.05
23 21.05
22 21.05
00 22.05
01 22.05
02 22.05
03 22.05
05 22.05
04 22.05
06 22.05
07 22.05
08 22.05
09 22.05
11 22.05
10 22.05
12 22.05
13 22.05
14 22.05
15 22.05
17 22.05
16 22.05
18 22.05
19 22.05
20 22.05
21 22.05
23 22.05
22 22.05
00 23.05
01 23.05
02 23.05
03 23.05
05 23.05
04 23.05
06 23.05
07 23.05
08 23.05
09 23.05
11 23.05
10 23.05
12 23.05
13 23.05
14 23.05
15 23.05
17 23.05
16 23.05
18 23.05
19 23.05
20 23.05
21 23.05
23 23.05
22 23.05
00 24.05
01 24.05
02 24.05
03 24.05
05 24.05
04 24.05
06 24.05
07 24.05
08 24.05
09 24.05
11 24.05
10 24.05
12 24.05
13 24.05
14 24.05
15 24.05
17 24.05
16 24.05
18 24.05
19 24.05
20 24.05
21 24.05
23 24.05
22 24.05
00 25.05
01 25.05
02 25.05
03 25.05
05 25.05
04 25.05
06 25.05
07 25.05
08 25.05
09 25.05
11 25.05
10 25.05
12 25.05
13 25.05
14 25.05
15 25.05
17 25.05
16 25.05
18 25.05
19 25.05
20 25.05
21 25.05
23 25.05
22 25.05
00 26.05
01 26.05
02 26.05
03 26.05
05 26.05
04 26.05
06 26.05
07 26.05
08 26.05
09 26.05
11 26.05
10 26.05
12 26.05
13 26.05
14 26.05
15 26.05
17 26.05
16 26.05
18 26.05
19 26.05
20 26.05
21 26.05
23 26.05
22 26.05
00 27.05
01 27.05
02 27.05
03 27.05
05 27.05
04 27.05
06 27.05
07 27.05
08 27.05
09 27.05
10 27.05
Ветер
(напр.,м/с)
Видим. Явления Облачность Т
(С)
Тd
(С)
f
(%)
Тe
(С)
Тes
(С)
Комфортность P
(гПа)
Po
(гПа)
Тmin
(С)
Tmax
(С)
R
(мм)
R24
(мм)
S
(см)
С 12 н/о н/о +23.9 +15.5 59 +27 +27 жарко 1019.0 1013.6
С 11 н/о н/о +23.1 +15.4 62 +27 +27 душно 1018.7 1013.3
С 11 20 км [макс. диам. градин 0 мм] 3/3 600 м
[Sc]
+24.7 +16.1 59 +28 +28 душно 1019.3 1013.9
С 12 н/о н/о +24.8 +15.6 57 +28 +28 жарко 1019.2 1013.8
С 10 н/о н/о +24.8 +15.2 55 +28 +28 жарко 1019.3 1013.9
С 8 22 км [макс. диам. градин 0 мм] 1/1 600 м
[Sc]
+24.7 +15.4 56 +28 +30 душно 1018.9 1013.5
С 8 н/о н/о +24.2 +15.6 59 +27 +27 жарко 1018.3 1012.9
С 8 н/о н/о +25.0 +14.7 53 +28 +28 жарко 1018.7 1013.3
С 9 18 км [макс. диам. градин 0 мм] 3/3 600 м
[Sc]
+22.7 +16.0 66 +27 +27 душно 1018.2 1012.8 +25.7
С 10 н/о н/о +21.3 +16.0 72 +25 +25 комфорт 1018.8 1013.3
С 8 н/о н/о +20.5 +15.2 72 +23 +23 комфорт 1019.8 1014.3
С 8 18 км [макс. диам. градин 0 мм] 1/1 600 м
[Sc]
+20.4 +13.6 65 +22 +22 комфорт 1020.4 1014.9
С 7 н/о н/о +20.2 +10.3 53 +21 +21 комфорт 1021.1 1015.6
С 7 н/о н/о +20.2 +12.3 60 +22 +22 комфорт 1020.9 1015.4
С 6 20 км [макс. диам. градин 0 мм] 1/1 600 м
[Sc]
+21.0 +7.5 42 +22 +22 комфорт 1020.8 1015.3
С 7 н/о н/о +20.6 +7.6 43 +21 +21 комфорт 1020.3 1014.8
С 8 н/о н/о +19.7 +11.8 60 +20 +20 тепло 1019.7 1014.2
С 7 20 км [макс. диам. градин 0 мм] 1/1 600 м
[Sc]
+18.9 +13.3 70 +19 +19 тепло 1019.6 1014.1
С 8 н/о н/о +18.6 +14.1 75 +19 +19 тепло 1019.3 1013.8
С 7 н/о н/о +18.7 +13.3 71 +19 +19 тепло 1019.2 1013.7
С 8 18 км [макс. диам. градин 0 мм] 3/3 600 м
[Sc]
+18.4 +13.8 75 +18 +18 по сезону 1019.5 1014.0 +18.4
С 7 н/о н/о +18.6 +13.4 72 +19 +19 тепло 1019.7 1014.2
С 8 н/о н/о +20.0 +13.1 64 +21 +21 комфорт 1020.1 1014.6
С 10 35 км [макс. диам. градин 0 мм] 1/1 600 м
[Cu Sc]
+21.1 +13.5 62 +24 +24 комфорт 1020.3 1014.8
С 10 н/о н/о +22.7 +13.5 56 +26 +26 жарко 1021.0 1015.5
С 10 н/о н/о +21.4 +13.2 60 +24 +24 комфорт 1020.8 1015.3
С 12 35 км [макс. диам. градин 0 мм] 1/1 600 м
[Cu Sc]
+23.2 +13.9 56 +27 +27 душно 1020.6 1015.1
С 13 н/о н/о +23.5 +13.7 54 +26 +26 жарко 1020.4 1014.9
С 13 н/о н/о +23.5 +14.3 56 +26 +26 жарко 1020.7 1015.2
С 13 35 км [макс. диам. градин 0 мм] 1/1 600 м
[Cu Sc]
+23.0 +13.8 56 +26 +26 жарко 1020.2 1014.7
С 10 н/о н/о +22.3 +13.5 57 +25 +25 комфорт 1019.9 1014.4
С 9 н/о н/о +22.6 +13.2 55 +26 +26 жарко 1020.1 1014.6
С 10 35 км [макс. диам. градин 0 мм] 1/1 600 м
[Cu Sc]
+21.3 +13.2 60 +24 +24 комфорт 1020.0 1014.5 +24.3
С 9 н/о н/о +20.5 +13.2 63 +22 +22 комфорт 1020.4 1014.9
С 9 н/о н/о +19.5 +12.9 66 +20 +20 по сезону 1020.8 1015.3
С 9 17 км [макс. диам. градин 0 мм] 3/3 600 м
[Sc]
+19.2 +13.3 69 +20 +20 по сезону 1021.2 1015.7
С 8 н/о н/о +18.9 +13.2 69 +19 +19 по сезону 1021.8 1016.3
С 8 н/о н/о +19.0 +13.3 70 +19 +19 по сезону 1021.4 1015.9
С 8 15 км [макс. диам. градин 0 мм] 4/4 600 м
[Sc]
+18.8 +13.4 71 +19 +19 по сезону 1021.3 1015.8
С 8 н/о н/о +18.7 +13.3 71 +19 +19 тепло 1020.5 1015.0
С 8 н/о н/о +18.5 +13.5 73 +18 +18 по сезону 1019.8 1014.3
С 8 15 км [макс. диам. градин 0 мм] 3/3 600 м
[Sc]
+18.4 +13.6 74 +18 +18 по сезону 1019.4 1013.9
С 8 н/о н/о +18.1 +13.6 75 +17 +17 по сезону 1019.5 1014.0
С 8 н/о н/о +18.1 +13.3 74 +17 +17 по сезону 1019.3 1013.8
С 7 1800 м [макс. диам. градин 0 мм] 4/4 600 м
[Sc]
+18.0 +13.5 75 +17 +17 по сезону 1020.3 1014.7 +18.0
С 7 н/о н/о +18.4 +13.3 72 +18 +18 тепло 1020.5 1015.0
С 9 н/о н/о +20.0 +13.3 65 +21 +21 комфорт 1020.5 1015.0
С 12 22 км [макс. диам. градин 0 мм] 1/1 600 м
[Sc]
+21.0 +13.4 62 +23 +23 комфорт 1020.6 1015.1
С 11 н/о н/о +23.2 +13.9 56 +27 +27 душно 1020.8 1015.3
С 10 н/о н/о +22.4 +13.4 57 +25 +25 комфорт 1020.7 1015.2
С 11 22 км [макс. диам. градин 0 мм] 1/1 600 м
[Sc]
+23.6 +14.4 56 +26 +26 жарко 1020.8 1015.4
С 10 н/о н/о +24.1 +14.9 56 +27 +27 жарко 1020.4 1015.0
С 11 н/о н/о +24.5 +14.9 55 +27 +27 жарко 1020.0 1014.6
С 11 18 км [макс. диам. градин 0 мм] 1/1 600 м
[Sc]
+24.9 +15.0 54 +28 +28 жарко 1019.3 1013.9
С 10 н/о н/о +23.6 +14.9 58 +26 +26 жарко 1018.2 1012.8
С 11 н/о н/о +24.6 +15.1 55 +27 +27 жарко 1018.6 1013.2
С 10 15 км [макс. диам. градин 0 мм] 1/1 600 м
[Cu hum]
+23.6 +14.3 56 +26 +26 жарко 1018.2 1012.8 +25.3
С 10 н/о н/о +22.3 +13.8 59 +25 +25 комфорт 1018.2 1012.7
С 10 н/о н/о +21.1 +14.9 68 +24 +24 комфорт 1018.4 1012.9
С 10 20 км [макс. диам. градин 0 мм] 1/1 300 м
[St]
+21.0 +14.8 68 +24 +24 комфорт 1019.0 1013.5
С 10 20 км н/о +22.9 +11.8 50 +25 +25 комфорт 1019.0 1013.5
С 10 н/о н/о +21.9 +12.2 54 +24 +24 комфорт 1019.0 1013.5
С 9 20 км [макс. диам. градин 0 мм] н/о +22.0 +12.6 55 +25 +25 комфорт 1019.5 1014.0
С 10 н/о н/о +21.6 +13.0 58 +24 +24 комфорт 1019.1 1013.6
С 9 н/о н/о +20.5 +14.5 68 +22 +22 комфорт 1019.0 1013.5
С 10 20 км [макс. диам. градин 0 мм] н/о +20.5 +14.7 69 +22 +22 комфорт 1018.8 1013.3
С 7 н/о н/о +20.8 +14.2 66 +23 +23 комфорт 1018.5 1013.0
С 8 н/о н/о +20.7 +14.5 68 +23 +23 комфорт 1018.4 1012.9
С 8 25 км [макс. диам. градин 0 мм] 1/1 300 м
[St]
+20.2 +14.9 72 +22 +22 комфорт 1019.0 1013.5 +20.2
С 8 н/о н/о +20.3 +15.4 73 +22 +22 комфорт 1019.0 1013.5
С 8 н/о н/о +22.1 +15.7 67 +26 +26 душно 1019.6 1014.1
С 8 18 км [макс. диам. градин 0 мм] 1/1 300 м
[Sc]
+23.8 +16.1 62 +27 +28 жарко 1019.9 1014.5
С 9 н/о н/о +25.9 +16.9 58 +30 +30 душно 1020.2 1014.8
С 8 н/о н/о +24.6 +16.9 62 +28 +28 душно 1020.3 1014.9
С 10 18 км [макс. диам. градин 0 мм] ясно +25.7 +16.6 57 +29 +30 душно 1019.9 1014.5
С 12 н/о н/о +25.8 +16.8 58 +30 +30 душно 1019.4 1014.0
С 11 н/о н/о +25.2 +17.5 62 +29 +29 душно 1019.1 1013.7
С 10 18 км [макс. диам. градин 0 мм] 1/1 600 м
[Sc]
+25.4 +17.4 61 +29 +30 душно 1018.7 1013.3
С 10 н/о н/о +23.2 +17.7 71 +29 +29 душно 1017.7 1012.3
С 11 н/о н/о +25.0 +17.9 65 +29 +29 душно 1018.1 1012.7
С 9 15 км [макс. диам. градин 0 мм] 1/1 600 м
[Sc]
+22.8 +17.8 73 +28 +28 душно 1017.4 1012.0 +26.7
С 8 н/о н/о +22.0 +17.7 77 +27 +27 душно 1017.3 1011.8
С 9 н/о н/о +21.2 +17.6 80 +25 +25 комфорт 1017.9 1012.4
С 7 18 км [макс. диам. градин 0 мм] ясно +21.6 +16.7 74 +26 +26 душно 1018.6 1013.1
С 7 н/о н/о +22.8 +14.5 59 +26 +26 жарко 1019.0 1013.5
С 7 н/о н/о +23.9 +13.8 53 +26 +26 жарко 1018.9 1013.5
С 6 18 км [макс. диам. градин 0 мм] ясно +23.1 +14.0 57 +27 +27 душно 1018.9 1013.5
С 8 н/о н/о +22.1 +15.3 65 +26 +26 душно 1018.7 1013.2
С 7 н/о н/о +24.1 +11.5 45 +26 +26 жарко 1018.1 1012.7
С 8 18 км [макс. диам. градин 0 мм] ясно +25.0 +11.1 42 +26 +26 жарко 1017.9 1012.5
С 7 н/о н/о +25.3 +8.7 35 +26 +26 жарко 1017.3 1011.9
С 8 н/о н/о +25.0 +9.6 38 +26 +26 жарко 1017.5 1012.1
С 7 20 км [макс. диам. градин 0 мм] ясно +24.9 +7.7 33 +25 +25 комфорт 1017.3 1011.9 +21.2
С 7 н/о н/о +24.4 +10.7 42 +26 +26 жарко 1017.5 1012.1
С 8 н/о н/о +25.1 +12.3 45 +27 +27 жарко 1017.7 1012.3
С 10 20 км [макс. диам. градин 0 мм] ясно +26.3 +15.5 51 +29 +30 жарко 1018.2 1012.8
С 12 н/о н/о +24.0 +17.5 67 +28 +28 душно 1019.1 1013.7
С 10 н/о н/о +24.7 +17.4 64 +29 +29 душно 1018.7 1013.3
С 10 12 км [макс. диам. градин 0 мм] 1/1 600 м
[Sc]
+25.1 +17.6 63 +29 +30 душно 1018.9 1013.5
СВ 10 н/о н/о +25.6 +17.6 61 +30 +30 душно 1018.2 1012.8
С 10 н/о н/о +24.9 +17.8 65 +29 +29 душно 1018.0 1012.6
С 10 15 км [макс. диам. градин 0 мм] ясно +25.5 +18.2 64 +30 +31 душно 1017.2 1011.8
С 7 н/о н/о +25.9 +18.3 63 +31 +31 очень
душно
1016.3 1010.9
С 7 н/о н/о +26.2 +18.6 63 +31 +31 очень
душно
1016.9 1011.5
С 10 12 км [макс. диам. градин 0 мм] ясно +23.7 +18.8 74 +28 +29 душно 1016.2 1010.8 +27.1
С 7 н/о н/о +23.2 +18.6 75 +29 +29 душно 1016.2 1010.8
С 6 н/о н/о +22.2 +18.2 78 +27 +27 душно 1016.7 1011.3
С 6 10 км [макс. диам. градин 0 мм] ясно +21.1 +18.3 84 +25 +25 комфорт 1017.3 1011.8
С 6 н/о н/о +20.4 +17.7 84 +24 +24 комфорт 1017.8 1012.3
С 7 н/о н/о +20.8 +17.9 83 +24 +24 комфорт 1017.6 1012.1
С 7 10 км [макс. диам. градин 0 мм] ясно +20.0 +17.8 87 +23 +23 комфорт 1018.1 1012.6
С 7 н/о н/о +19.7 +17.7 88 +22 +22 комфорт 1017.5 1012.0
С 8 н/о н/о +19.5 +17.6 89 +21 +21 комфорт 1017.1 1011.6
С 8 10 км [макс. диам. градин 0 мм] ясно +19.4 +17.5 89 +21 +21 комфорт 1016.8 1011.3
С 7 н/о н/о +19.2 +17.1 88 +20 +20 тепло 1016.7 1011.2
С 8 н/о н/о +19.3 +17.4 89 +21 +21 комфорт 1016.7 1011.2
С 6 15 км [макс. диам. градин 0 мм] 1/1 300 м
[Sc]
+19.1 +16.9 87 +20 +20 тепло 1016.8 1011.3 +19.1
С 5 н/о н/о +19.7 +17.2 85 +22 +22 комфорт 1017.1 1011.6
С 7 н/о н/о +20.9 +17.5 81 +25 +25 комфорт 1017.6 1012.1
С 8 12 км [макс. диам. градин 0 мм] 1/1 600 м
[Sc]
+22.2 +17.5 75 +27 +28 душно 1017.7 1012.2
С 11 н/о н/о +23.6 +17.7 70 +28 +28 душно 1018.0 1012.6
С 9 н/о н/о +23.4 +17.5 69 +29 +29 душно 1017.7 1012.3
С 11 12 км [макс. диам. градин 0 мм] 1/1 600 м
[Sc]
+23.8 +17.8 69 +28 +28 душно 1017.9 1012.5
С 11 н/о н/о +23.7 +17.7 69 +28 +28 душно 1017.7 1012.3
С 11 н/о н/о +24.0 +17.8 68 +28 +28 душно 1017.3 1011.9
С 9 12 км [макс. диам. градин 0 мм] 1/1 600 м
[Sc]
+26.3 +17.6 59 +31 +32 душно 1016.7 1011.3
С 9 н/о н/о +25.8 +18.2 63 +30 +30 душно 1016.1 1010.7
С 10 н/о н/о +26.0 +18.2 62 +31 +31 очень
душно
1016.6 1011.2
С 8 12 км [макс. диам. градин 0 мм] 1/1 600 м
[Sc]
+24.9 +17.8 65 +29 +30 душно 1016.0 1010.6 +26.7
С 5 н/о н/о +24.0 +17.4 67 +28 +28 душно 1016.3 1010.9
С 5 н/о н/о +22.3 +17.4 74 +27 +27 душно 1016.4 1011.0
С 5 12 км [макс. диам. градин 0 мм] 1/1 600 м
[Sc]
+22.0 +17.0 73 +26 +26 душно 1017.0 1011.5
С 5 н/о н/о +21.6 +16.0 70 +25 +25 комфорт 1017.5 1012.0
С 4 н/о н/о +21.8 +16.4 71 +26 +26 душно 1017.4 1011.9
С 6 15 км [макс. диам. градин 0 мм] 1/1 600 м
[Sc]
+21.0 +15.9 73 +24 +24 комфорт 1017.1 1011.6
С 6 н/о н/о +20.7 +16.2 75 +24 +24 комфорт 1016.6 1011.1
С 6 н/о н/о +20.3 +16.1 77 +23 +23 комфорт 1016.1 1010.6
С 6 15 км [макс. диам. градин 0 мм] 1/1 600 м
[Sc]
+19.5 +16.9 85 +21 +21 комфорт 1016.2 1010.7
С 6 н/о н/о +19.1 +17.2 89 +20 +20 тепло 1016.5 1011.0
С 6 н/о н/о +19.2 +16.4 84 +21 +21 комфорт 1016.1 1010.6
С 6 12 км [макс. диам. градин 0 мм] 1/1 1000 м
[Sc]
+19.0 +17.0 88 +20 +20 тепло 1017.1 1011.6 +19.0
С 6 н/о н/о +19.5 +17.1 86 +21 +21 комфорт 1017.4 1011.9
С 6 н/о н/о +21.0 +17.4 80 +25 +25 комфорт 1017.7 1012.2
С 7 12 км [макс. диам. градин 0 мм] ясно +23.1 +17.5 71 +28 +30 душно 1017.6 1012.2
С 10 н/о н/о +24.1 +18.2 70 +29 +29 душно 1018.3 1012.9
С 8 н/о н/о +23.9 +18.1 70 +28 +28 душно 1018.0 1012.6
С 10 12 км [макс. диам. градин 0 мм] ясно +24.4 +18.2 68 +29 +29 душно 1018.2 1012.8
С 11 н/о н/о +24.1 +18.0 69 +28 +28 душно 1017.9 1012.5
С 11 н/о н/о +24.8 +18.2 67 +29 +29 душно 1017.4 1012.0
С 11 11 км [макс. диам. градин 0 мм] ясно +24.5 +18.3 68 +29 +29 душно 1017.0 1011.6
С 10 н/о н/о +23.9 +18.2 70 +28 +28 душно 1016.4 1011.0
С 11 н/о н/о +24.5 +18.3 68 +29 +29 душно 1016.7 1011.3
С 9 11 км [макс. диам. градин 0 мм] ясно +22.9 +18.1 74 +28 +29 душно 1016.3 1010.9 +25.3
С 7 н/о н/о +22.3 +18.1 77 +27 +27 душно 1016.6 1011.2
С 6 н/о н/о +21.2 +17.7 80 +25 +25 комфорт 1016.9 1011.4
С 7 12 км [макс. диам. градин 0 мм] 1/1 600 м
[Sc]
+20.7 +17.6 82 +24 +24 комфорт 1017.4 1011.9
С 5 н/о н/о +20.1 +17.2 83 +23 +23 комфорт 1018.1 1012.6
С 6 н/о н/о +20.4 +17.4 83 +23 +23 комфорт 1017.9 1012.4
С 6 12 км [макс. диам. градин 0 мм] 1/1 600 м
[Sc]
+19.8 +17.1 84 +22 +22 комфорт 1017.9 1012.4
С 6 н/о н/о +19.4 +17.2 87 +21 +21 комфорт 1017.3 1011.8
С 5 н/о н/о +19.0 +16.8 87 +20 +20 тепло 1016.9 1011.4
С 6 12 км [макс. диам. градин 0 мм] 1/1 300 м
[Sc]
+18.7 +16.5 87 +19 +19 тепло 1016.4 1010.9
С 6 н/о н/о +18.1 +16.2 89 +18 +18 тепло 1016.1 1010.6
С 5 н/о н/о +18.4 +16.3 88 +19 +19 тепло 1016.1 1010.6
С 6 12 км [макс. диам. градин 0 мм] 1/1 600 м
[Sc]
+17.9 +16.1 89 +17 +17 тепло 1016.3 1010.8 +17.9
С 6 н/о н/о +18.6 +16.3 86 +19 +19 тепло 1016.7 1011.2
С 7 н/о н/о +19.6 +16.3 81 +21 +21 комфорт 1017.3 1011.8
С 8 25 км [макс. диам. градин 0 мм] 1/1 600 м
[Sc]
+20.8 +16.4 76 +24 +25 комфорт 1017.5 1012.0
С 9 н/о н/о +22.3 +16.8 71 +27 +27 душно 1017.9 1012.4
Местоположение метеостанции Гран-Канария (Канарские Острова): широта 27.93 долгота -15.38 высота над уровнем моря 47 м.
В архиве по умолчанию представлена погода в Гран-Канарии за последнюю неделю. Архивные данные за месяц целиком и за предыдущие месяцы, начиная с января 2011 года, Вы можете получить, выбрав интересующий диапазон дат из раскрывающегося списка и нажав кнопку "Найти!".
*Определитесь, кто Вы:
Внимание! Время в таблицах - всемирное. Для получения местного времени необходимо прибавить поправку, которая равна 0 ч.
Смотрите также архив погоды в соседних городах и на ближайших метеорологических станциях:
Партнеры нашего сайта:      
Пояснения к столбцам:
  • Ветер - указаны скорость ветра в м/с - средняя за 10 мин, порывы в срок и между сроками (в фигурных скобках) и направление, откуда дует ветер: С - северный,
  • СВ - северо-восточный, В - восточный, ЮВ - юго-восточный, Ю - южный, ЮЗ - юго-западный, З - западный, СЗ - северо-западный.
  • Видимость - горизонтальная дальность видимости в метрах или километрах. При видимости от 1 до 10 км при отсутствии осадков обычно наблюдается дымка, при ухудшении видимости до 1 км и менее - туман. В сухую погоду видимость может ухудшаться дымом, пылью или мглою.
  • Явления - указаны атмосферные явления, наблюдавшиеся в срок или в последний час перед сроком; фигурными скобками обозначены явления, наблюдавшиеся между сроками (за 1-3 часа до срока); квадратными скобками обозначены град или гололедные отложения с указанием их диаметра в мм.
  • Облачность - указаны через наклонную черту общая и нижняя облачность в баллах и высота нижней границы облаков в метрах; квадратными скобками обозначены формы облаков: Ci - перистые, Cs - перисто-слоистые, Cc - перисто-кучевые, Ac - высококучевые, As - высокослоистые, Sc - слоисто-кучевые, Ns - слоисто-дождевые, Cu - кучевые, Cb - кучево-дождевые. Подробнее классификацию облаков см. в Атласе облаков (PDF).
  • T - Температура воздуха - температура, измеренная на высоте 2 м над землей.
  • Td - Температура точки росы - температура, при понижении до которой содержащийся в воздухе водяной пар достигнет насыщения.
  • f - Относительная влажность воздуха - влажноcть воздуха, измеренная на высоте 2 м над землей.
  • Te - Эффективная температура - температура, которую ощущает одетый по сезону человек в тени. Характеристика душности погоды. При расчете учитывается влияние влажности воздуха и скорости ветра на теплоощущения человека.
  • Tes - Эффективная температура на солнце - температура, которую ощущает человек, с поправкой на солнечный нагрев. Характеристика знойности погоды. Зависит от высоты солнца над горизонтом, облачности и скорости ветра. Ночью, в пасмурную погоду, а также при ветре 12 м/с и более поправка равна нулю.
  • P - Атмосферное давление - приведенное к уровню моря атмосферное давление.
  • Po - Атмосферное давление - измеренное на уровне метеостанции атмосферное давление.
  • Tmin - Минимальная температура - минимум температуры воздуха на высоте 2 м над землей.
  • Tmax - Максимальная температура - максимум температуры воздуха на высоте 2 м над землей.
  • R - Количество осадков - Количество выпавших осадков за период времени, мм. При наведении курсора мыши на число - период времени, за который выпало указанное количество осадков.
  • R24 - Количество осадков - Количество выпавших осадков за 24 часа, мм.
  • S - Снежный покров - Высота снежного покрова, см. При наведении курсора мыши на число - состояние снежного покрова и степень покрытия местности в баллах.